PILOTS ONLINE: 249    ATC ONLINE: 30

KSEE

Gillespie Field

Location

City San Diego/El Cajon
Country  United States
Latitude 32° 49' 34" N
Longitude 116° 58' 19" W
Elevation 388 ft
Type Small Airport

Map

Weather

METAR
2014/10/24 09:15
KSEE 240915Z AUTO 00000KT 10SM CLR 14/06 A2998 RMK AO2
TAF
No TAF available

Runways

09L/27R 5342 ft / 100 ft
09R/27L 2738 ft / 60 ft
17/35 4145 ft / 100 ft

Outbound flights

Callsign Flying to Pilot ATD/STD ETA Aircraft

Inbound flights

Callsign Flying from Pilot ATD ETA Aircraft